Location: Luz Observatory
(34.5000°N, 117.2833°W)
Time: 12:57:49
(UTC-07:00)

HST - Visible Passes

Search period start: 21 October 2014 00:00
Search period end: 31 October 2014 00:00
Orbit: 546 x 550 km, 28.5° (Epoch: 20 October)

Date Brightness Start Highest point End Pass type
(mag) Time Alt. Az. Time Alt. Az. Time Alt. Az.
22 Oct 3.3 19:46:04 10° S 19:46:26 11° S 19:46:26 11° S visible
23 Oct 2.9 19:37:45 10° SSW 19:39:46 15° SSE 19:39:46 15° SSE visible
24 Oct 2.6 19:29:51 10° SSW 19:32:43 18° SSE 19:33:02 18° SSE visible
25 Oct 2.4 19:22:07 10° SW 19:25:21 22° SSE 19:26:15 20° SE visible
26 Oct 2.3 19:14:31 10° SW 19:17:59 25° SSE 19:19:26 21° SE visible
27 Oct 2.1 19:06:59 10° SW 19:10:37 29° S 19:12:34 20° SE visible
27 Oct 3.9 20:47:50 10° WSW 20:48:07 12° WSW 20:48:07 12° WSW visible
28 Oct 2.0 18:59:31 10° SW 19:03:15 32° S 19:05:41 18° ESE visible
28 Oct 3.7 20:40:31 10° WSW 20:41:14 14° WSW 20:41:14 14° WSW visible
29 Oct 1.9 18:52:05 10° WSW 18:55:54 34° S 18:58:48 15° ESE visible
29 Oct 3.5 20:33:13 10° WSW 20:34:20 17° WSW 20:34:20 17° WSW visible
30 Oct 1.9 18:44:41 10° WSW 18:48:31 35° S 18:51:55 13° ESE visible
30 Oct 3.2 20:25:57 10° WSW 20:27:27 19° SW 20:27:27 19° SW visible
